This demonstration page uses our WeatherBlox Daily Observations layout. Learn more.

Left ArrowRight Arrow

39.92423, -83.80882

Hourly Observations for January 14, 2018

Temp ( °F °C ) Dew Point ( °F °C ) Humidity (%) Winds ( mph kmh ) Pressure ( in mb ) Visibility ( mi km ) Precip ( " mm )
12:56 am 00:56 Cloudy 11 -11.7 8 -13.3 88 88 E 3 6 30.65 1038 10 16 N/A
1:56 am 01:56 Cloudy 11 -11.7 7 -13.9 84 84 SSE 3 6 30.66 1038 10 16 N/A
2:56 am 02:56 Cloudy with Light Snow 11 -11.7 8 -13.3 88 88 S 3 6 30.67 1039 10 16 N/A
3:56 am 03:56 Cloudy with Light Snow 12 -11.1 8 -13.3 84 84 SSE 3 6 30.67 1039 9 14 N/A
4:56 am 04:56 Cloudy 12 -11.1 7 -13.9 80 80 N N/A 30.67 1039 10 16 N/A
5:56 am 05:56 Cloudy 10 -12.2 7 -13.9 87 87 SSE 5 7 30.68 1039 10 16 N/A
6:56 am 06:56 Mostly Cloudy 5 -15 N/A 79 79 N N/A 30.70 1040 10 16 N/A
7:56 am 07:56 Sunny 3 -16.1 1 -17.2 91 91 SSE 6 9 30.71 1040 10 16 N/A
8:56 am 08:56 Mostly Cloudy 7 -13.9 3 -16.1 84 84 SSE 3 6 30.73 1041 10 16 N/A
9:56 am 09:56 Mostly Cloudy 13 -10.6 6 -14.4 74 74 SSE 6 9 30.75 1041 10 16 N/A
10:56 am 10:56 Mostly Cloudy 17 -8.3 7 -13.9 64 64 SSE 7 11 30.73 1041 10 16 N/A
11:56 am 11:56 Sunny 18 -7.8 5 -15 57 57 SSE 9 15 30.70 1040 10 16 N/A
12:56 pm 12:56 Sunny 18 -7.8 4 -15.6 54 54 SE 9 15 30.66 1038 10 16 N/A
1:56 pm 13:56 Sunny 18 -7.8 4 -15.6 54 54 SE 8 13 30.64 1038 10 16 N/A
2:56 pm 14:56 Sunny 17 -8.3 4 -15.6 56 56 SE 8 13 30.62 1037 10 16 N/A
3:56 pm 15:56 Sunny 16 -8.9 5 -15 62 62 SE 8 13 30.60 1036 10 16 N/A
4:56 pm 16:56 Sunny 12 -11.1 3 -16.1 67 67 ESE 7 11 30.60 1036 10 16 N/A
5:56 pm 17:56 Clear 9 -12.8 2 -16.7 73 73 ESE 5 7 30.60 1036 10 16 N/A
6:56 pm 18:56 Clear 7 -13.9 2 -16.7 80 80 ESE 5 7 30.60 1036 10 16 N/A
7:56 pm 19:56 Clear 5 -15 N/A 79 79 ESE 7 11 30.57 1035 10 16 N/A
8:56 pm 20:56 Clear 6 -14.4 1 -17.2 79 79 ESE 7 11 30.55 1035 10 16 N/A
9:56 pm 21:56 Clear 5 -15 N/A 79 79 E 7 11 30.53 1034 10 16 N/A
10:56 pm 22:56 Partly Cloudy 10 -12.2 4 -15.6 76 76 SE 8 13 30.50 1033 10 16 N/A
11:56 pm 23:56 Cloudy 13 -10.6 5 -15 70 70 SE 7 11 30.48 1032 10 16 N/A

Powered by AerisWeather